| time (UTC) | temp F | wind direction | speed knots | gust knots | rain 1hr in | rain 24hr in | rain mn in | humidity % | barometer mb |
| 20260905034537 | 59 | 37 | 5.2 | 9.6 | 0.00 | 0.00 | 0.00 | 54 | 1015.6 |
| 20260905033040 | 61 | 22 | 7.8 | 12.2 | 0.00 | 0.00 | 0.00 | 51 | 1015.4 |
| 20260905031538 | 62 | 5 | 8.7 | 12.2 | 0.00 | 0.00 | 0.00 | 49 | 1015.5 |
| 20260905030038 | 62 | 5 | 8.7 | 12.2 | 0.00 | 0.00 | 0.00 | 48 | 1015.5 |
| 20260905024538 | 62 | 15 | 7.8 | 10.4 | 0.00 | 0.00 | 0.00 | 48 | 1015.2 |
| 20260905023036 | 63 | 350 | 7.8 | 11.3 | 0.00 | 0.00 | 0.00 | 46 | 1014.8 |
| 20260905021537 | 64 | 318 | 7.8 | 16.5 | 0.00 | 0.00 | 0.00 | 45 | 1014.8 |
| 20260905020038 | 64 | 346 | 12.2 | 19.1 | 0.00 | 0.00 | 0.00 | 44 | 1013.9 |
| 20260905014536 | 64 | 9 | 13.0 | 17.4 | 0.00 | 0.00 | 0.00 | 44 | 1013.4 |
| 20260905013039 | 65 | 22 | 12.2 | 18.2 | 0.00 | 0.00 | 0.00 | 43 | 1013.6 |
| 20260905011535 | 66 | 13 | 14.8 | 21.7 | 0.00 | 0.00 | 0.00 | 41 | 1013.2 |
| 20260905010040 | 67 | 360 | 18.2 | 23.5 | 0.00 | 0.00 | 0.00 | 40 | 1013.0 |
| 20260905004538 | 67 | 14 | 19.1 | 24.3 | 0.00 | 0.00 | 0.00 | 39 | 1013.0 |
| 20260905003036 | 67 | 11 | 17.4 | 21.7 | 0.00 | 0.00 | 0.00 | 39 | 1013.2 |
| 20260905001538 | 67 | 5 | 16.5 | 20.9 | 0.00 | 0.00 | 0.00 | 40 | 1013.3 |
| 20260905000036 | 68 | 5 | 14.8 | 19.1 | 0.00 | 0.00 | 0.00 | 39 | 1013.3 |
| 20260904234536 | 68 | 344 | 12.2 | 18.2 | 0.00 | 0.00 | 0.00 | 39 | 1013.4 |
| 20260904233037 | 69 | 342 | 7.8 | 17.4 | 0.00 | 0.00 | 0.00 | 38 | 1013.6 |
| 20260904231550 | 70 | 309 | 10.4 | 14.8 | 0.00 | 0.00 | 0.00 | 37 | 1013.3 |
| 20260904230037 | 70 | 18 | 9.6 | 19.1 | 0.00 | 0.00 | 0.00 | 36 | 1013.3 |
| 20260904224534 | 71 | 328 | 12.2 | 20.9 | 0.00 | 0.00 | 0.00 | 36 | 1013.0 |
| 20260904223034 | 73 | 292 | 11.3 | 18.2 | 0.00 | 0.00 | 0.00 | 36 | 1012.9 |
| 20260904221542 | 73 | 292 | 10.4 | 17.4 | 0.00 | 0.00 | 0.00 | 36 | 1012.7 |
| 20260904220036 | 72 | 290 | 12.2 | 20.0 | 0.00 | 0.00 | 0.00 | 37 | 1012.5 |
| 20260904214534 | 72 | 293 | 13.9 | 20.9 | 0.00 | 0.00 | 0.00 | 36 | 1012.4 |
| 20260904213038 | 73 | 292 | 14.8 | 21.7 | 0.00 | 0.00 | 0.00 | 36 | 1012.1 |
| 20260904211534 | 73 | 290 | 13.0 | 18.2 | 0.00 | 0.00 | 0.00 | 37 | 1011.7 |
| 20260904210037 | 72 | 292 | 14.8 | 25.2 | 0.00 | 0.00 | 0.00 | 36 | 1011.6 |
| 20260904204537 | 72 | 306 | 14.8 | 20.9 | 0.00 | 0.00 | 0.00 | 35 | 1011.4 |
| 20260904203049 | 73 | 293 | 12.2 | 16.5 | 0.00 | 0.00 | 0.00 | 35 | 1011.4 |
| 20260904201535 | 71 | 281 | 13.0 | 20.0 | 0.00 | 0.00 | 0.00 | 36 | 1011.0 |
| 20260904200056 | 72 | 306 | 7.8 | 15.6 | 0.00 | 0.00 | 0.00 | 37 | 1011.0 |
| 20260904194534 | 70 | 271 | 8.7 | 13.0 | 0.00 | 0.00 | 0.00 | 39 | 1010.9 |
| 20260904193037 | 69 | 277 | 8.7 | 14.8 | 0.00 | 0.00 | 0.00 | 41 | 1010.6 |
| 20260904191537 | 68 | 284 | 7.8 | 13.0 | 0.00 | 0.00 | 0.00 | 42 | 1010.3 |
| 20260904190038 | 67 | 262 | 6.1 | 11.3 | 0.00 | 0.00 | 0.00 | 43 | 1010.3 |
| 20260904184537 | 67 | 274 | 8.7 | 14.8 | 0.00 | 0.00 | 0.00 | 43 | 1010.2 |
| 20260904183041 | 66 | 277 | 7.8 | 12.2 | 0.00 | 0.00 | 0.00 | 44 | 1010.1 |
| 20260904181540 | 66 | 234 | 7.8 | 14.8 | 0.00 | 0.00 | 0.00 | 44 | 1009.9 |
| 20260904180042 | 66 | 246 | 7.8 | 13.9 | 0.00 | 0.00 | 0.00 | 43 | 1010.0 |
| 20260904174536 | 66 | 228 | 7.8 | 10.4 | 0.00 | 0.00 | 0.00 | 44 | 1010.0 |
| 20260904173053 | 65 | 254 | 3.5 | 7.0 | 0.00 | 0.00 | 0.00 | 45 | 1009.6 |
| 20260904171538 | 64 | 224 | 6.1 | 9.6 | 0.00 | 0.00 | 0.00 | 45 | 1009.7 |
| 20260904170038 | 63 | 244 | 7.0 | 12.2 | 0.00 | 0.00 | 0.00 | 47 | 1009.6 |
| 20260904164534 | 62 | 250 | 7.8 | 13.9 | 0.00 | 0.00 | 0.00 | 47 | 1009.6 |
| 20260904163035 | 63 | 227 | 9.6 | 13.9 | 0.00 | 0.00 | 0.00 | 46 | 1009.4 |
| 20260904161535 | 63 | 302 | 4.3 | 8.7 | 0.00 | 0.00 | 0.00 | 53 | 1009.1 |
| 20260904160045 | 62 | 289 | 3.5 | 6.1 | 0.00 | 0.00 | 0.00 | 52 | 1009.0 |
| 20260904154535 | 62 | 36 | 3.5 | 5.2 | 0.00 | 0.00 | 0.00 | 51 | 1008.4 |
| 20260904153034 | 62 | 40 | 4.3 | 6.1 | 0.00 | 0.00 | 0.00 | 51 | 1008.1 |
| 20260904151538 | 62 | 53 | 6.1 | 8.7 | 0.00 | 0.00 | 0.00 | 50 | 1007.9 |
| 20260904150034 | 61 | 54 | 5.2 | 7.8 | 0.00 | 0.00 | 0.00 | 53 | 1007.8 |
| 20260904144538 | 60 | 67 | 5.2 | 8.7 | 0.00 | 0.00 | 0.00 | 53 | 1007.8 |
| 20260904143037 | 59 | 53 | 2.6 | 6.1 | 0.00 | 0.00 | 0.00 | 56 | 1007.6 |
| 20260904141539 | 57 | 26 | 4.3 | 10.4 | 0.00 | 0.00 | 0.00 | 59 | 1007.9 |
| 20260904140037 | 57 | 65 | 7.8 | 9.6 | 0.00 | 0.00 | 0.00 | 59 | 1007.8 |
| 20260904134559 | 54 | 68 | 2.6 | 7.8 | 0.00 | 0.00 | 0.00 | 66 | 1008.0 |
| 20260904133036 | 53 | 34 | 4.3 | 7.8 | 0.00 | 0.00 | 0.00 | 66 | 1008.2 |
| 20260904131537 | 53 | 28 | 6.1 | 8.7 | 0.00 | 0.00 | 0.00 | 66 | 1008.0 |
| 20260904130041 | 51 | 34 | 6.1 | 7.8 | 0.00 | 0.00 | 0.00 | 68 | 1007.7 |
| 20260904124537 | 51 | 34 | 7.8 | 10.4 | 0.00 | 0.00 | 0.00 | 68 | 1007.5 |
| 20260904123036 | 52 | 31 | 7.8 | 9.6 | 0.00 | 0.00 | 0.00 | 67 | 1007.5 |
| 20260904121542 | 52 | 33 | 7.8 | 9.6 | 0.00 | 0.00 | 0.00 | 67 | 1007.6 |
| 20260904120037 | 52 | 28 | 7.0 | 8.7 | 0.00 | 0.00 | 0.00 | 66 | 1007.6 |
| 20260904114537 | 53 | 33 | 5.2 | 8.7 | 0.00 | 0.00 | 0.00 | 63 | 1007.6 |
| 20260904113034 | 55 | 41 | 5.2 | 12.2 | 0.00 | 0.00 | 0.00 | 59 | 1007.6 |
| 20260904111538 | 55 | 55 | 9.6 | 13.0 | 0.00 | 0.00 | 0.00 | 59 | 1007.6 |
| 20260904110033 | 54 | 37 | 7.8 | 11.3 | 0.00 | 0.00 | 0.00 | 61 | 1007.8 |
| 20260904104534 | 54 | 15 | 7.8 | 11.3 | 0.00 | 0.00 | 0.00 | 61 | 1008.2 |
| 20260904103034 | 54 | 22 | 7.0 | 9.6 | 0.00 | 0.00 | 0.00 | 62 | 1008.2 |
| 20260904101536 | 53 | 26 | 7.0 | 11.3 | 0.00 | 0.00 | 0.00 | 63 | 1008.3 |
| 20260904100036 | 53 | 29 | 9.6 | 12.2 | 0.00 | 0.00 | 0.00 | 63 | 1008.2 |
| 20260904094549 | 54 | 25 | 5.2 | 9.6 | 0.00 | 0.00 | 0.00 | 61 | 1008.5 |
| 20260904093035 | 54 | 52 | 7.8 | 10.4 | 0.00 | 0.00 | 0.00 | 62 | 1008.4 |
| 20260904091538 | 54 | 38 | 7.8 | 11.3 | 0.00 | 0.00 | 0.00 | 61 | 1008.6 |
| 20260904090045 | 55 | 40 | 9.6 | 12.2 | 0.00 | 0.00 | 0.00 | 60 | 1008.8 |
| 20260904084534 | 54 | 44 | 7.8 | 12.2 | 0.00 | 0.00 | 0.00 | 61 | 1009.1 |
| 20260904083105 | 54 | 45 | 9.6 | 12.2 | 0.00 | 0.00 | 0.00 | 61 | 1009.1 |
| 20260904081536 | 55 | 59 | 7.0 | 10.4 | 0.00 | 0.00 | 0.00 | 61 | 1009.4 |
| 20260904080037 | 56 | 48 | 7.0 | 9.6 | 0.00 | 0.00 | 0.00 | 60 | 1009.4 |
| 20260904074533 | 57 | 51 | 7.8 | 10.4 | 0.00 | 0.00 | 0.00 | 58 | 1009.7 |
| 20260904073036 | 57 | 28 | 3.5 | 7.0 | 0.00 | 0.00 | 0.00 | 59 | 1009.8 |
| 20260904071547 | 58 | 5 | 7.0 | 11.3 | 0.00 | 0.00 | 0.00 | 58 | 1009.9 |
| 20260904070105 | 57 | 14 | 4.3 | 7.0 | 0.00 | 0.00 | 0.00 | 61 | 1009.9 |
| 20260904064538 | 58 | 15 | 6.1 | 7.8 | 0.00 | 0.00 | 0.00 | 56 | 1009.9 |
| 20260904063036 | 57 | 35 | 4.3 | 7.8 | 0.00 | 0.00 | 0.00 | 59 | 1009.9 |
| 20260904061536 | 57 | 31 | 4.3 | 7.8 | 0.00 | 0.00 | 0.00 | 59 | 1010.0 |
| 20260904060036 | 58 | 28 | 4.3 | 7.8 | 0.00 | 0.00 | 0.00 | 58 | 1009.9 |
| 20260904054544 | 58 | 9 | 6.1 | 8.7 | 0.00 | 0.00 | 0.00 | 56 | 1010.0 |
| 20260904053048 | 57 | 337 | 5.2 | 8.7 | 0.00 | 0.00 | 0.00 | 59 | 1010.1 |
| 20260904051540 | 56 | 330 | 4.3 | 7.0 | 0.00 | 0.00 | 0.00 | 60 | 1010.4 |
| 20260904050038 | 57 | 338 | 3.5 | 5.2 | 0.00 | 0.00 | 0.00 | 59 | 1010.4 |
| 20260904044538 | 58 | 333 | 1.7 | 7.8 | 0.00 | 0.00 | 0.00 | 59 | 1010.6 |
| 20260904043038 | 57 | 13 | 6.1 | 7.8 | 0.00 | 0.00 | 0.00 | 57 | 1010.5 |
| 20260904041534 | 57 | 27 | 5.2 | 7.8 | 0.00 | 0.00 | 0.00 | 56 | 1010.5 |
| 20260904040043 | 56 | 19 | 4.3 | 6.1 | 0.00 | 0.00 | 0.00 | 57 | 1010.6 |